Location: Praha
(50.0830°N, 14.4670°E)
Time: 15:50:59
(UTC+02:00)

ISS - Pass Details

Date: 25 May 2018
Orbit: 402 x 408 km, 51.6° (Epoch: 18 September)

Event Time Altitude Azimuth Distance (km) Brightness Sun altitude
Rises 21:55:40 0° 251° (WSW) 2,319 0.3 -8.1°
Reaches altitude 10° 21:57:45 10° 251° (WSW) 1,459 -0.7 -8.4°
Maximum altitude 22:01:01 85° 164° (SSE) 410 -3.9 -8.7°
Drops below altitude 10° 22:04:18 10° 75° (ENE) 1,460 -1.3 -9.1°
Sets 22:06:22 0° 74° (ENE) 2,320 -0.2 -9.3°
